EHI
34 17 3 0 0 0 0 0 0 0 0 0 0 0 0 0 0 0 0 0 0 0 0 0 0 1 4 7 9 8 6 5 4 3 2 2 3 4 3 2 1 1 1 1 1 1 0 0 0
24 13 3 0 0 0 0 0 0 0 0 0 0 0 0 0 0 0 0 0 0 0 0 0 1 2 4 5 6 6 4 3 3 3 2 2 3 3 3 2 1 1 0 0 0 0 0 0 0
13 7 1 0 0 0 0 0 0 0 0 0 0 0 0 0 0 0 0 0 0 0 0 0 1 2 2 2 2 3 2 2 2 2 1 1 2 2 1 1 1 1 0 0 0 0 0 0 0
6 3 0 0 0 0 0 0 0 0 0 0 0 0 0 0 0 0 0 0 0 0 0 0 1 1 1 0 1 1 1 1 1 1 1 1 1 1 0 0 1 1 0 0 0 0 0 0 0
1 0 0 0 0 0 0 0 0 0 0 0 0 0 0 0 0 0 0 1 0 0 0 0 0 0 0 0 1 1 2 2 2 1 1 1 2 1 0 0 0 0 0 0 0 0 0 0 0
0 0 0 0 0 0 0 0 0 0 0 0 0 0 0 0 0 0 0 0 0 0 0 0 0 0 0 0 0 1 2 2 2 1 1 3 3 1 0 0 0 0 0 0 0 0 0 0 0
0 0 0 0 0 0 0 0 0 0 0 0 0 0 0 0 0 0 0 0 0 0 0 0 0 0 0 0 0 0 1 1 1 1 1 2 3 1 0 0 0 0 0 0 0 1 0 0 0
0 0 0 0 0 0 0 0 0 0 0 0 0 0 0 0 0 0 0 0 0 0 0 0 0 0 0 0 0 0 0 0 0 1 1 1 2 1 0 0 0 0 0 0 0 0 0 0 0
0 0 0 0 0 0 0 0 0 0 0 0 0 0 0 0 0 0 0 0 0 0 0 0 0 0 0 0 0 0 0 0 0 0 0 0 1 1 0 0 0 0 0 0 0 0 0 0 0
0 0 0 0 0 0 0 0 0 0 0 0 0 0 0 0 0 0 0 0 0 0 0 0 0 0 0 0 0 0 0 0 0 0 0 0 0 0 0 0 0 0 0 0 0 0 0 0 0
0 0 0 0 0 0 0 0 0 0 0 0 0 0 0 0 0 0 0 0 0 0 0 0 0 0 0 0 0 0 0 0 0 0 0 0 0 0 0 0 0 0 0 0 0 0 0 0 0
1 1 0 0 0 0 0 0 0 0 0 0 0 0 0 0 0 0 0 0 0 0 0 0 0 0 0 0 0 0 0 0 0 0 0 0 0 0 0 0 0 0 0 0 0 0 0 0 0
0 0 0 0 0 0 0 0 0 0 0 0 0 0 0 0 0 0 0 0 0 0 0 0 0 0 0 0 0 0 0 0 0 0 0 0 0 0 0 0 0 0 0 0 0 0 0 0 0
0 0 0 0 0 0 0 0 0 0 0 0 0 0 0 0 0 0 0 0 0 0 0 0 0 0 0 0 0 0 0 0 0 0 0 0 0 0 0 0 0 0 0 0 0 0 0 0 0
0 0 0 0 0 0 0 0 0 0 0 0 0 0 0 0 0 0 0 0 0 0 0 0 0 0 0 0 0 0 0 0 0 0 0 0 0 0 0 0 0 0 0 0 0 0 0 0 0
0 0 0 0 0 0 0 0 0 0 0 0 0 0 0 0 0 0 0 0 0 0 0 0 0 0 0 0 0 0 0 0 0 0 0 0 0 0 0 0 0 0 0 0 0 0 0 0 0
0 0 0 0 0 0 0 0 0 0 0 0 0 0 0 0 0 0 0 0 0 0 0 0 0 0 0 0 0 0 0 0 0 0 0 0 0 0 0 0 0 0 0 0 0 0 0 0 0
0 0 0 0 0 0 0 0 0 0 0 0 0 0 0 0 0 0 0 0 0 0 0 0 0 0 0 0 0 0 0 0 0 0 0 0 0 0 0 0 0 0 0 0 0 0 0 0 0
0 0 0 0 0 0 0 0 0 0 0 0 0 0 0 0 0 0 0 0 0 0 0 0 0 0 0 0 0 0 0 0 0 0 0 0 0 0 0 0 0 0 0 0 0 0 0 0 0
0 0 0 0 0 0 0 0 0 0 0 0 0 0 0 0 0 0 0 0 0 0 0 0 0 0 0 0 0 0 0 0 0 0 0 0 0 0 0 0 0 0 0 0 0 0 0 0 0
0 0 0 0 0 0 0 0 0 0 0 0 0 0 0 0 0 0 0 0 0 0 0 0 0 0 0 0 0 0 0 0 0 0 0 0 0 0 0 0 0 0 0 0 0 0 0 0 0
0 0 0 0 0 0 0 0 0 0 0 0 0 0 0 0 0 0 0 0 0 0 0 0 0 0 0 0 0 0 0 0 0 0 0 0 0 0 0 0 0 0 0 0 0 0 0 0 0
0 0 0 0 0 0 0 0 0 0 0 0 0 0 0 0 0 0 0 0 0 0 0 0 0 0 0 0 0 0 0 0 0 0 0 0 0 0 0 0 0 0 0 0 0 0 0 0 0
0 0 0 0 0 0 0 0 0 0 0 0 0 0 0 0 0 0 0 0 0 0 0 0 0 0 0 0 0 0 0 0 0 0 0 0 0 0 0 0 0 0 0 0 0 0 0 0 0
0 0 0 0 0 0 0 0 0 0 0 0 0 0 0 0 0 0 0 0 0 0 0 0 0 0 0 0 0 0 0 0 0 0 0 0 0 0 0 0 0 0 0 0 0 0 0 0 0
0 0 0 0 0 0 0 0 0 0 0 0 0 0 0 0 0 0 0 0 0 0 0 0 0 0 0 0 0 0 0 0 0 0 0 0 0 0 0 0 0 0 0 0 0 0 0 0 0
0 0 0 0 0 0 0 0 0 0 0 0 0 0 0 0 0 0 0 0 0 0 0 0 0 0 0 0 0 0 0 0 0 0 0 0 0 0 0 0 0 0 0 0 0 0 0 0 0
0 0 0 0 0 0 0 0 0 0 0 0 0 0 0 0 0 0 0 0 0 0 0 0 0 0 0 0 0 0 0 0 0 0 0 0 0 0 0 0 0 0 0 0 0 0 0 0 0
0 0 0 0 0 0 0 0 0 0 0 0 0 0 0 0 0 0 0 0 0 0 0 0 0 0 0 0 0 0 0 0 0 0 0 0 0 0 0 0 0 0 0 0 0 0 0 0 0
0 0 0 0 0 0 0 0 0 0 0 0 0 0 0 0 0 0 0 0 0 0 0 0 0 0 0 0 0 0 0 0 0 0 0 0 0 0 0 0 0 0 0 0 0 0 0 0 0
Wind_Speed
12 7 4 2 1 1 1 2 1 2 4 5 10 11 9 7 5 5 1 3 7 7 6 7 9 9 8 7 7 6 6 5 5 5 5 4 4 4 3 3 2 3 3 3 3 3 3 3 3
7 6 2 2 2 1 1 2 1 2 7 7 9 9 8 7 5 4 2 4 8 7 5 6 9 8 7 6 6 5 5 5 4 4 4 4 4 3 3 2 2 2 2 2 2 2 1 2 2
8 4 2 2 2 2 2 2 1 5 7 6 6 6 5 4 3 2 2 7 8 6 4 5 8 7 6 5 5 4 4 4 4 4 4 4 4 4 4 3 3 2 2 2 1 1 0 0 1
4 2 1 2 2 1 2 3 2 5 6 6 7 6 4 4 2 3 5 8 8 6 4 5 7 6 5 4 4 3 3 3 4 4 5 5 5 5 5 5 4 4 4 3 3 3 2 2 2
2 3 3 1 0 2 2 1 2 5 4 5 7 6 3 2 5 6 6 7 7 5 3 4 6 5 4 4 3 3 3 3 4 5 5 6 6 6 6 6 6 6 5 5 5 5 4 3 3
3 3 3 2 1 2 2 0 6 9 7 7 7 6 2 1 4 4 5 5 5 4 3 2 4 4 3 2 2 2 3 3 4 5 6 6 7 7 7 7 7 7 7 7 6 6 6 5 5
3 3 2 3 2 2 2 2 5 6 6 4 5 6 3 2 3 4 5 4 4 4 3 2 1 1 0 1 2 3 3 4 5 6 6 7 7 8 8 8 8 8 8 8 8 7 7 7 7
4 3 2 2 3 3 3 2 4 6 5 3 4 7 4 4 4 4 4 4 3 3 2 1 1 1 1 2 3 3 4 5 6 6 7 7 7 8 8 8 9 9 9 9 9 9 9 8 8
4 4 2 3 5 3 3 4 3 4 6 4 4 5 6 7 6 5 3 2 2 2 1 1 1 1 1 1 3 3 5 6 6 6 7 6 3 4 5 7 9 10 11 10 9 9 9 9 8
4 2 3 3 4 4 4 5 7 5 6 4 5 4 6 6 6 5 4 3 2 1 1 2 2 1 2 2 2 2 3 3 4 3 4 3 3 3 5 6 10 11 11 10 10 10 9 7 3
3 2 1 2 3 3 3 4 5 9 4 6 8 8 6 6 6 6 4 4 3 2 3 3 3 2 2 2 2 2 2 3 3 4 4 3 2 2 3 2 4 5 6 4 5 5 3 3 3
4 1 1 3 2 2 3 4 5 5 7 9 10 9 7 7 7 6 6 5 3 3 3 3 3 3 3 2 2 2 2 2 2 3 3 2 2 2 2 2 3 2 2 2 3 2 3 3 4
3 2 3 5 2 2 3 5 6 4 8 10 10 9 8 8 6 5 6 6 5 4 3 2 3 3 2 3 2 3 3 2 3 2 2 2 1 2 2 2 2 2 2 2 3 3 3 3 4
4 4 3 5 2 1 4 3 6 6 9 10 10 8 8 8 7 6 6 5 4 4 3 2 3 2 2 2 3 2 3 2 2 2 2 2 1 1 2 2 2 2 2 3 3 4 3 3 3
3 3 2 3 1 0 4 1 5 9 10 10 9 8 8 7 7 7 7 6 5 4 3 2 3 3 3 3 3 3 3 3 2 2 3 2 2 2 1 2 2 2 2 3 2 3 2 3 3
3 1 1 3 2 2 3 6 6 9 11 9 8 8 7 6 7 7 7 6 5 5 3 2 3 3 3 3 3 3 3 3 2 2 3 3 3 3 2 1 2 3 2 2 2 2 2 3 3
2 1 3 4 4 3 3 6 5 9 10 9 8 8 7 5 5 6 6 6 5 5 4 3 2 3 2 3 3 3 3 3 3 2 3 4 4 4 2 2 2 2 1 1 2 2 2 2 3
5 4 3 4 5 5 5 7 5 8 8 8 7 6 6 7 7 6 6 6 5 4 4 3 2 2 2 2 3 3 4 3 3 2 3 4 3 4 3 2 3 3 1 2 2 2 2 2 2
7 5 3 4 6 7 9 9 8 9 7 7 6 6 7 7 6 6 6 6 5 4 4 3 3 2 2 2 2 2 3 3 3 3 4 4 4 4 3 3 3 3 2 2 2 1 2 2 1
6 3 2 2 5 7 7 8 7 10 11 9 9 8 8 7 6 5 5 5 5 5 4 3 3 2 1 0 0 1 1 2 2 2 4 4 4 4 3 3 3 3 2 3 2 1 1 1 1
3 5 5 5 2 2 2 4 2 4 5 5 6 7 9 11 10 8 6 5 5 5 4 4 3 2 1 1 1 2 2 3 3 3 3 4 4 4 3 3 3 3 2 2 3 1 1 1 1
4 6 6 5 3 3 2 2 5 4 5 6 6 7 8 9 9 8 7 7 6 5 5 4 4 3 1 1 1 1 1 1 2 2 3 4 5 4 4 3 3 3 2 2 3 2 1 1 1
7 5 3 2 3 2 1 3 6 2 5 7 7 7 8 9 10 9 8 8 7 6 5 4 4 3 2 1 1 1 0 1 2 2 4 4 4 4 4 3 3 3 2 3 3 3 2 1 2
4 4 6 6 5 2 5 5 5 6 8 7 7 7 8 8 8 8 7 6 5 5 4 4 4 3 2 1 1 1 1 1 1 2 3 4 3 3 4 4 3 3 3 3 3 2 2 2 2
5 6 5 4 4 6 3 4 8 6 6 8 9 8 8 8 8 8 7 7 6 6 5 5 4 4 3 2 1 2 2 2 1 1 2 2 2 3 4 4 3 3 3 3 2 2 2 2 2
4 8 7 4 4 5 2 3 5 2 3 5 7 8 8 8 8 8 9 8 7 7 6 5 5 4 4 3 2 2 2 1 1 2 2 2 2 3 4 4 4 4 4 3 2 2 2 2 2
5 3 6 6 2 2 4 2 4 1 2 4 5 7 8 9 9 8 8 7 7 7 7 7 6 5 4 4 3 2 2 2 2 2 2 2 3 3 4 4 4 4 3 3 2 2 3 3 2
5 7 5 4 2 2 3 3 5 7 7 6 7 8 8 8 8 8 7 7 7 7 6 6 6 6 5 4 3 2 3 3 2 1 2 3 3 3 3 4 4 3 3 3 2 2 3 3 3
2 2 5 4 5 5 2 7 7 10 9 9 9 9 9 9 9 8 7 7 6 5 5 5 5 5 4 4 3 2 2 2 1 1 2 2 2 2 3 3 3 3 4 3 3 3 3 3 3
5 5 7 4 3 4 3 9 5 8 8 8 8 8 8 8 8 8 7 6 5 6 5 5 5 5 5 5 4 3 2 1 1 2 2 2 2 2 2 2 3 3 3 3 3 3 3 3 4
Wind_Direction
169 152 120 101 71 31 306 302 300 20 56 57 72 78 79 58 72 113 252 118 130 139 148 147 145 141 138 136 135 135 136 137 139 143 143 139 136 132 129 122 114 108 98 88 82 76 65 63 57
155 141 123 93 96 106 297 292 342 80 130 113 72 68 72 69 67 89 78 122 125 129 134 138 138 136 139 143 144 146 150 153 158 164 167 165 163 161 162 167 159 148 137 118 97 82 63 53 46
157 151 133 108 124 174 204 244 126 79 98 95 77 53 61 59 59 84 125 133 123 118 117 129 130 133 137 142 150 157 163 171 175 179 186 192 193 192 197 202 202 199 193 184 166 164 208 332 353
151 125 66 84 116 235 212 233 154 104 73 67 97 73 56 32 73 106 118 124 119 119 121 132 132 134 140 146 155 170 181 193 201 203 206 208 209 209 212 217 219 218 214 213 206 204 217 244 267
100 96 77 68 159 276 261 216 106 82 76 81 94 90 74 41 91 100 111 118 123 129 135 140 139 144 151 157 165 186 207 217 223 224 223 221 222 222 219 220 222 221 222 221 216 211 220 236 249
85 80 94 156 220 274 292 115 95 90 104 109 97 101 102 147 118 122 118 115 123 131 131 127 136 142 158 171 188 208 229 243 244 241 239 235 234 235 231 226 225 222 224 226 219 213 220 232 240
131 122 142 156 170 215 204 141 100 104 91 87 109 106 132 179 166 140 125 120 116 114 111 94 62 34 322 251 249 250 254 261 263 257 251 248 247 246 244 241 235 228 226 226 224 216 220 228 236
146 109 127 163 174 217 183 119 101 103 96 76 97 127 166 198 160 125 109 106 110 109 116 123 110 60 9 326 306 294 281 278 280 275 267 258 257 258 256 254 247 240 235 229 226 223 223 227 233
100 84 167 194 183 200 169 121 80 66 88 62 73 131 162 156 136 113 94 78 92 99 88 96 83 47 338 301 309 308 296 292 293 291 283 280 271 268 265 263 261 251 242 235 230 230 230 230 233
91 126 218 213 194 176 170 143 133 100 92 90 91 104 130 134 130 127 126 123 115 106 82 68 71 52 13 350 341 309 302 297 288 280 282 282 271 264 266 269 267 261 250 239 233 232 237 234 225
96 143 281 268 201 160 161 137 123 127 138 165 154 150 141 127 128 132 138 135 135 120 82 69 69 51 34 5 341 318 307 300 291 281 276 277 280 278 275 275 283 278 260 243 236 236 229 218 210
96 43 229 255 210 161 155 128 107 150 174 166 157 149 139 132 137 141 136 136 131 103 92 72 65 52 34 23 352 340 327 312 302 292 290 278 277 276 275 266 268 269 260 237 229 226 225 219 215
122 124 304 278 253 144 119 124 125 145 148 148 145 141 143 144 147 144 136 131 126 115 114 91 75 61 39 23 353 358 339 332 321 318 318 299 277 276 273 272 269 264 254 241 231 225 226 225 223
159 147 257 281 286 100 118 129 120 171 157 150 152 156 160 158 155 139 132 128 131 132 136 113 87 68 44 19 351 341 340 340 349 351 340 334 309 294 284 282 275 267 254 241 228 225 224 230 227
98 95 279 269 339 4 109 188 206 178 165 163 169 172 174 172 153 149 152 149 148 143 141 136 113 67 44 18 356 356 348 355 359 348 351 359 0 340 315 291 286 279 267 256 245 237 228 231 228
87 84 239 259 177 194 141 236 234 175 170 177 181 185 182 178 159 156 153 149 145 134 129 104 88 73 52 32 6 356 358 2 357 354 359 0 360 357 347 322 302 297 287 266 253 233 229 234 228
89 178 236 257 207 191 182 238 226 184 177 185 191 194 185 171 158 160 155 151 144 138 134 118 99 82 61 32 11 2 357 1 353 358 2 357 359 3 358 331 312 310 311 285 276 247 228 236 237
183 199 218 229 208 191 223 245 210 200 188 191 198 195 184 173 175 167 157 150 137 129 126 119 93 77 66 32 12 1 358 353 354 351 348 355 354 356 359 345 340 337 332 313 296 273 250 234 234
173 177 202 226 198 187 226 239 210 203 196 194 196 184 179 173 170 160 153 141 126 113 110 110 93 79 65 37 13 356 341 332 340 339 348 350 350 349 350 349 344 345 335 308 301 287 276 259 209
167 164 210 250 209 193 229 245 221 196 198 192 185 177 171 154 155 157 150 144 138 130 122 118 116 115 97 100 257 265 288 298 306 326 340 341 343 340 343 348 336 337 337 337 333 328 302 277 183
156 175 190 204 200 230 234 315 248 208 196 195 184 173 163 162 166 166 157 155 145 142 147 140 142 135 126 86 37 7 5 352 350 341 336 325 330 335 335 335 335 340 343 329 320 313 259 267 266
188 210 188 175 128 262 177 258 276 208 189 196 187 171 165 163 164 165 161 162 162 166 161 153 155 159 166 113 81 61 14 322 295 298 312 321 331 336 338 339 342 340 338 327 313 326 279 227 249
191 201 172 146 133 328 283 166 281 174 197 212 201 184 171 166 167 169 170 171 172 172 168 168 165 182 202 168 141 136 244 271 298 319 336 337 334 337 337 340 342 336 329 320 315 325 312 252 218
155 63 42 49 66 313 237 164 249 215 205 200 199 188 174 169 169 169 170 165 170 176 175 173 173 202 221 208 142 158 199 265 336 332 335 333 329 328 331 331 336 329 322 314 312 316 316 289 260
86 82 37 6 9 261 242 168 238 232 202 182 182 185 180 172 167 168 170 175 179 184 190 185 183 205 218 211 198 186 194 192 223 275 305 319 320 314 315 326 324 323 320 315 318 327 323 307 290
157 131 150 187 222 279 316 216 256 272 176 158 164 172 175 179 179 180 183 184 188 194 194 189 192 205 211 212 219 206 197 192 227 250 261 279 277 282 297 315 319 322 325 332 332 328 316 320 303
133 150 168 142 203 265 298 332 334 1 151 159 169 174 186 190 190 189 188 188 190 195 199 195 194 201 207 212 210 203 221 218 237 261 271 280 289 297 316 322 324 329 336 340 345 328 316 318 307
144 146 98 116 154 285 303 241 228 218 218 211 202 200 205 200 193 189 188 192 194 198 201 194 191 195 201 204 208 201 221 232 239 250 281 290 305 317 327 334 337 341 342 343 342 323 317 323 311
163 144 113 123 155 160 244 261 226 199 203 206 214 211 205 198 193 191 193 195 192 192 192 192 196 191 195 200 205 203 226 231 230 242 268 277 300 318 328 331 338 339 339 339 344 328 321 322 315
176 180 145 150 217 171 185 265 268 191 195 194 207 209 204 197 192 190 189 189 190 193 195 195 195 192 198 200 201 207 213 205 218 247 267 279 301 314 321 330 335 328 330 332 330 322 326 319 312